• In Uzbekistan
  • List of Countries
  • For 7 days
  • Water Temperature
  • Satellite Maps
  • Weather Map
  • Weather Widgets
  • user-avatar
    Login

    Hourly Weather Solden

    Today, 25 March, Saturday

    Time Temperature Precipitation Wind Pressure Humidity
    00:00 -3°C° 0 mm 1 mps 583 mmHg 88%
    01:00 -4°C° 0 mm 1 mps 582 mmHg 84%
    02:00 -4°C° 0 mm 1 mps 582 mmHg 84%
    03:00 -4°C° 0 mm 1 mps 582 mmHg 85%
    04:00 -4°C° 0 mm 1 mps 582 mmHg 86%
    05:00 -4°C° 0 mm 1 mps 582 mmHg 86%
    06:00 -3°C° 0 mm 1 mps 582 mmHg 87%
    07:00 -2°C° 0 mm 1 mps 583 mmHg 84%
    08:00 0°C° 0 mm 1 mps 584 mmHg 81%
    09:00 +2°C° 0 mm 1 mps 584 mmHg 79%
    10:00 +4°C° 0 mm 1 mps 585 mmHg 77%
    11:00 +4°C° 0 mm 1 mps 585 mmHg 75%
    12:00 +5°C° 0 mm 1 mps 585 mmHg 74%
    13:00 +5°C° 0 mm 2 mps 585 mmHg 73%
    14:00 +5°C° 0 mm 1 mps 585 mmHg 74%
    15:00 +5°C° 0 mm 1 mps 584 mmHg 75%
    16:00 +5°C° 0 mm 1 mps 584 mmHg 75%
    17:00 +3°C° 0 mm 1 mps 582 mmHg 80%
    18:00 +1°C° 0 mm 1 mps 581 mmHg 85%
    19:00 -1°C° 0 mm 1 mps 580 mmHg 90%
    20:00 -2°C° 0 mm 1 mps 580 mmHg 90%
    21:00 -2°C° 0 mm 1 mps 580 mmHg 91%
    22:00 -3°C° 0 mm 1 mps 580 mmHg 91%
    23:00 -3°C° 0 mm 1 mps 580 mmHg 92%

    Tomorrow, 26 March, Sunday

    Time Temperature Precipitation Wind Pressure Humidity
    00:00 -3°C° 0 mm 1 mps 579 mmHg 94%
    01:00 -3°C° 0 mm 1 mps 579 mmHg 95%
    02:00 -3°C° 0 mm 1 mps 579 mmHg 95%
    03:00 -4°C° 0 mm 1 mps 578 mmHg 95%
    04:00 -4°C° 0 mm 1 mps 578 mmHg 95%
    05:00 -4°C° 0 mm 1 mps 578 mmHg 93%
    06:00 -4°C° 0 mm 1 mps 578 mmHg 91%
    07:00 -5°C° 0 mm 0 mps 578 mmHg 89%
    08:00 -1°C° 0 mm 1 mps 580 mmHg 84%
    09:00 +1°C° 0 mm 1 mps 581 mmHg 78%
    10:00 +4°C° 0 mm 1 mps 582 mmHg 72%
    11:00 +4°C° 0 mm 1 mps 582 mmHg 72%
    12:00 +4°C° 0 mm 1 mps 583 mmHg 71%
    13:00 +4°C° 0 mm 2 mps 583 mmHg 70%
    14:00 +3°C° 0.3 mm 2 mps 582 mmHg 73%
    15:00 +3°C° 0.3 mm 2 mps 582 mmHg 75%
    16:00 +2°C° 0.3 mm 2 mps 582 mmHg 78%
    17:00 +1°C° 0.5 mm 2 mps 582 mmHg 83%
    18:00 -2°C° 0.5 mm 2 mps 582 mmHg 88%
    19:00 -1°C° 0.5 mm 1 mps 581 mmHg 92%
    20:00 -2°C° 0.2 mm 1 mps 581 mmHg 93%
    21:00 -3°C° 0.2 mm 1 mps 582 mmHg 94%
    22:00 -4°C° 0.2 mm 1 mps 582 mmHg 95%
    23:00 -4°C° 0.1 mm 1 mps 582 mmHg 95%

    Day after tomorrow, 27 March, Monday

    Time Temperature Precipitation Wind Pressure Humidity
    00:00 -4°C° 0.1 mm 1 mps 582 mmHg 95%
    01:00 -4°C° 0.1 mm 1 mps 582 mmHg 95%
    02:00 -4°C° 0 mm 1 mps 582 mmHg 95%
    03:00 -4°C° 0 mm 1 mps 582 mmHg 95%
    04:00 -4°C° 0 mm 1 mps 582 mmHg 95%
    05:00 -4°C° 0 mm 1 mps 582 mmHg 93%
    06:00 -4°C° 0 mm 1 mps 582 mmHg 91%
    07:00 -4°C° 0 mm 1 mps 582 mmHg 89%
    08:00 -2°C° 0 mm 1 mps 583 mmHg 82%
    09:00 0°C° 0 mm 1 mps 584 mmHg 75%
    10:00 +2°C° 0 mm 1 mps 585 mmHg 69%
    11:00 +3°C° 0 mm 1 mps 585 mmHg 67%
    12:00 +4°C° 0 mm 1 mps 585 mmHg 65%
    13:00 +4°C° 0 mm 1 mps 586 mmHg 64%
    14:00 +4°C° 0 mm 1 mps 585 mmHg 66%
    15:00 +4°C° 0 mm 1 mps 585 mmHg 68%
    16:00 +4°C° 0 mm 1 mps 585 mmHg 70%
    17:00 +1°C° 0 mm 1 mps 584 mmHg 78%
    18:00 -1°C° 0 mm 1 mps 583 mmHg 86%
    19:00 -4°C° 0 mm 1 mps 581 mmHg 94%
    20:00 -4°C° 0 mm 1 mps 582 mmHg 95%
    21:00 -4°C° 0 mm 1 mps 582 mmHg 95%
    22:00 -4°C° 0 mm 1 mps 582 mmHg 96%
    23:00 -4°C° 0 mm 1 mps 582 mmHg 96%

    28 March, Tuesday

    Time Temperature Precipitation Wind Pressure Humidity
    00:00 -4°C° 0 mm 1 mps 582 mmHg 96%
    01:00 -6°C° 0 mm 1 mps 582 mmHg 96%
    02:00 -6°C° 0 mm 0 mps 582 mmHg 96%
    03:00 -7°C° 0 mm 0 mps 582 mmHg 96%
    04:00 -7°C° 0 mm 0 mps 581 mmHg 96%
    05:00 -6°C° 0 mm 1 mps 582 mmHg 93%
    06:00 -4°C° 0 mm 1 mps 583 mmHg 91%
    07:00 -3°C° 0 mm 1 mps 583 mmHg 88%
    08:00 0°C° 0 mm 1 mps 584 mmHg 81%
    09:00 +1°C° 0 mm 0 mps 586 mmHg 74%
    10:00 +3°C° 0 mm 0 mps 587 mmHg 66%
    11:00 +5°C° 0 mm 1 mps 587 mmHg 64%
    12:00 +6°C° 0 mm 1 mps 587 mmHg 61%
    13:00 +7°C° 0 mm 1 mps 588 mmHg 58%
    14:00 +6°C° 0 mm 1 mps 587 mmHg 60%
    15:00 +6°C° 0 mm 1 mps 587 mmHg 63%
    16:00 +5°C° 0 mm 1 mps 587 mmHg 65%
    17:00 +3°C° 0 mm 1 mps 585 mmHg 73%
    18:00 0°C° 0 mm 1 mps 584 mmHg 82%
    19:00 -2°C° 0 mm 1 mps 583 mmHg 90%
    20:00 -4°C° 0 mm 0 mps 583 mmHg 92%
    21:00 -4°C° 0 mm 0 mps 583 mmHg 94%
    22:00 -5°C° 0 mm 0 mps 583 mmHg 95%
    23:00 -5°C° 0 mm 0 mps 583 mmHg 95%

    29 March, Wednesday

    Time Temperature Precipitation Wind Pressure Humidity
    00:00 -5°C° 0 mm 0 mps 582 mmHg 95%
    01:00 -6°C° 0 mm 0 mps 582 mmHg 95%
    02:00 -6°C° 0 mm 0 mps 582 mmHg 95%
    03:00 -6°C° 0 mm 0 mps 582 mmHg 94%
    04:00 -6°C° 0 mm 0 mps 581 mmHg 93%
    05:00 -4°C° 0 mm 1 mps 582 mmHg 90%
    06:00 -3°C° 0 mm 1 mps 583 mmHg 86%
    07:00 -3°C° 0 mm 1 mps 583 mmHg 83%
    08:00 0°C° 0 mm 1 mps 585 mmHg 74%
    09:00 +2°C° 0 mm 0 mps 586 mmHg 66%
    10:00 +5°C° 0 mm 0 mps 588 mmHg 57%
    11:00 +5°C° 0 mm 0 mps 588 mmHg 55%
    12:00 +7°C° 0 mm 1 mps 588 mmHg 53%
    13:00 +8°C° 0 mm 1 mps 588 mmHg 50%
    14:00 +8°C° 0 mm 1 mps 587 mmHg 53%
    15:00 +7°C° 0 mm 1 mps 587 mmHg 56%
    16:00 +7°C° 0 mm 1 mps 587 mmHg 58%
    17:00 +4°C° 0 mm 1 mps 585 mmHg 68%
    18:00 +1°C° 0 mm 1 mps 584 mmHg 77%
    19:00 -2°C° 0 mm 1 mps 582 mmHg 87%
    20:00 -3°C° 0 mm 0 mps 582 mmHg 88%
    21:00 -3°C° 0 mm 0 mps 582 mmHg 90%
    22:00 -4°C° 0 mm 0 mps 582 mmHg 92%
    23:00 -4°C° 0 mm 0 mps 582 mmHg 91%

    30 March, Thursday

    Time Temperature Precipitation Wind Pressure Humidity
    00:00 -4°C° 0 mm 0 mps 582 mmHg 91%
    01:00 -4°C° 0 mm 0 mps 582 mmHg 91%
    02:00 -4°C° 0 mm 0 mps 582 mmHg 89%
    03:00 -4°C° 0 mm 1 mps 582 mmHg 88%
    04:00 -4°C° 0 mm 1 mps 582 mmHg 87%
    05:00 -3°C° 0 mm 1 mps 582 mmHg 83%
    06:00 -3°C° 0 mm 0 mps 583 mmHg 79%
    07:00 -3°C° 0 mm 0 mps 583 mmHg 76%
    08:00 +1°C° 0 mm 1 mps 585 mmHg 68%
    09:00 +4°C° 0 mm 1 mps 586 mmHg 59%
    10:00 +6°C° 0 mm 1 mps 587 mmHg 51%
    11:00 +7°C° 0 mm 1 mps 587 mmHg 50%
    12:00 +7°C° 0 mm 1 mps 587 mmHg 48%
    13:00 +8°C° 0 mm 1 mps 588 mmHg 46%
    14:00 +8°C° 0 mm 1 mps 587 mmHg 49%
    15:00 +7°C° 0 mm 1 mps 587 mmHg 52%
    16:00 +7°C° 0 mm 1 mps 587 mmHg 55%
    17:00 +4°C° 0 mm 1 mps 585 mmHg 65%
    18:00 +2°C° 0 mm 1 mps 584 mmHg 75%
    19:00 -1°C° 0 mm 1 mps 582 mmHg 85%
    20:00 -1°C° 0 mm 1 mps 583 mmHg 87%
    21:00 -1°C° 0 mm 1 mps 583 mmHg 88%
    22:00 -2°C° 0 mm 1 mps 583 mmHg 90%
    23:00 -2°C° 0 mm 1 mps 583 mmHg 91%
    Show more